Location: Stuttgart
(48.8069°N, 9.1544°E)
Time: 04:10:55
(UTC+02:00)

ISS - Pass Details

Date: 17 May 2021
Orbit: 417 x 422 km, 51.6° (Epoch: 15 June)

Event Time Altitude Azimuth Distance (km) Brightness Sun altitude
Rises 02:03:45 0° 288° (WNW) 2,372 0.2 -21.2°
Reaches altitude 10° 02:05:51 10° 291° (WNW) 1,507 -0.8 -21.1°
Maximum altitude 02:09:14 70° 15° (NNE) 453 -3.5 -21.0°
Drops below altitude 10° 02:12:36 10° 101° (E) 1,506 -0.9 -20.8°
Sets 02:14:43 0° 103° (ESE) 2,370 0.1 -20.8°
